Back to catalog

STARLINK-37187

AliveCommunicationsSSO
NORAD 68399·PAYLOAD·🇺🇸 United States

Launched Mar 26, 2026 from Vandenberg Space Force Base

Loading…

Next Passes (next 24 hours)

TLE

FreshSource: CelesTrak SupGP

Epoch: Sep 14, 2026, 22:39 UTC

1 68399C 26063V   26257.94423611 -.00012692  00000+0 -39395-3 0  2574
2 68399  97.2864  38.9751 0000846  93.7624 248.6495 15.33448952    18

Track STARLINK-37187 in real time with AllMySat

Download on the App Store